Location: Unspecified
(0.0000°N, 0.0000°E)
Time: 18:11:37
(UTC+02:00)

ATLAS 2AS CENTAUR R/B - Visible Passes

Search period start: 30 July 2015 00:00
Search period end: 09 August 2015 00:00
Orbit: 912 x 1300 km, 63.7° (Epoch: 29 June)

Date Brightness Start Highest point End Pass type
(mag) Time Alt. Az. Time Alt. Az. Time Alt. Az.
30 Jul 3.8 05:22:04 37° NNE 05:22:04 37° NNE 05:26:13 10° NNE visible
31 Jul 4.9 04:39:18 19° NE 04:39:18 19° NE 04:41:11 10° NE visible
31 Jul 4.4 06:26:47 16° NW 06:26:47 16° NW 06:29:32 10° NNW visible
01 Aug 4.4 05:43:57 21° NNW 05:43:57 21° NNW 05:46:38 10° N visible
02 Aug 4.8 05:01:05 17° N 05:01:05 17° N 05:02:41 10° NNE visible
